Hlavní strana
METAR-TAF:

METAR-TAF

Letiště :

Fayetteville, Tennessee, Spojené státy americké

zeměpisná šířka: 35-03-35N, zeměpisná délka: 086-33-50W, výška: 300 m

Aktuální stav počasí

Zpráva byla vytvořena před 23 minutami, v 20:35 UTC
Bezvětří
Teplota 23°C
Vlhkost vzduchu 25%
Tlak 1018 hPa
Viditelnost: 16.1 km
Jasno

METAR: KFYM 142035Z AUTO 00000KT 10SM CLR 23/02 A3007 RMK A01

Čas: 15:58 (20:58 UTC)


TAF: chybějící

Stav a předpovědi počasí z více než 4 000 letišť (zprávy METAR a TAF).

Červené a žluté tečky na mapě představují dostupné meteorologické stanice.

Když kurzor umístíte na tečku, zobrazí se název stanice.

Pak kliknutím zobrazíte stav a předpověď počasí.

Chcete-li změnit mapu, kliknutím na zelené tlačítko se znaménkem +mapu přiblížíte, kliknutím na zelené tlačítko se znaménkem – mapu oddálíte a kliknutím na zelené šipky přejdete na sousední mapy.


METAR-TAF: